CAPE
0 0 0 0 0 0 0 0 0 0 0 0 0 0 0 0 0 0 15 1 1 0 0 0 0 0 0 0 3 51 48 0 3 127 45 101 13 2 24 25 16 0 0 0
0 0 0 0 0 0 0 0 0 0 0 2 0 0 0 14 0 9 0 0 0 0 0 0 6 0 0 0 0 153 3 19 151 134 168 136 114 60 12 34 44 28 13 2
0 0 0 0 0 0 0 0 0 0 0 0 0 0 0 0 1 0 0 0 0 0 0 2 9 0 0 0 0 17 9 151 331 222 207 22 0 19 19 18 44 19 76 51
0 0 0 0 0 0 0 0 0 0 0 0 0 0 0 0 0 0 0 0 0 0 0 0 26 0 0 0 0 26 67 203 317 149 195 120 4 11 13 6 38 29 55 59
0 0 0 0 0 0 0 0 0 0 0 0 0 0 0 0 0 0 0 0 0 0 0 6 23 0 0 0 0 0 77 251 202 230 148 24 34 24 4 0 0 2 4 92
0 0 0 0 0 0 0 0 0 0 1 0 0 0 0 0 0 0 0 0 0 0 0 3 17 0 0 0 0 83 88 238 211 70 70 0 40 36 0 0 0 9 63 135
0 0 0 0 0 0 0 0 0 0 0 0 0 0 0 0 0 0 0 6 0 0 0 11 15 0 0 0 0 7 13 19 26 43 34 15 1 1 0 0 0 1 43 76
0 0 0 0 0 0 0 0 0 0 0 0 0 0 0 0 0 0 0 4 2 0 0 0 0 0 0 0 0 6 0 0 0 38 10 0 3 13 0 4 16 5 48 88
0 0 0 0 0 0 0 0 0 0 0 0 0 0 0 0 0 0 5 24 0 0 0 0 0 0 0 0 0 0 0 0 0 12 0 0 12 74 91 86 64 34 86 144
0 0 0 0 0 0 0 0 5 0 0 0 0 0 0 0 0 0 67 32 5 0 0 0 0 0 0 0 0 0 0 0 0 0 0 0 54 80 136 119 68 65 46 5
0 0 0 0 0 0 0 0 0 0 0 0 0 0 0 0 0 4 107 60 8 0 0 0 0 0 0 0 0 0 0 0 0 0 0 0 0 33 85 51 56 19 47 90
0 0 0 0 0 0 0 0 0 0 0 0 0 0 0 12 46 26 149 55 3 0 0 0 0 0 0 0 0 0 0 0 0 0 0 0 0 30 66 63 24 20 12 62
0 0 0 0 0 0 0 0 0 0 0 0 0 0 0 0 13 114 95 63 0 0 0 0 0 0 0 0 0 0 0 0 0 0 0 0 0 0 12 28 0 16 17 24
0 0 0 0 0 0 0 0 0 0 0 0 0 1 16 1 4 30 29 7 0 0 0 0 0 0 0 0 0 0 0 0 0 0 0 0 0 0 0 0 9 20 24 30
0 0 0 0 0 0 0 0 0 0 0 0 0 2 0 0 0 1 0 0 0 0 0 0 0 0 0 0 0 0 0 0 0 0 0 0 0 0 0 0 3 38 24 30
0 0 0 0 0 0 0 0 0 0 0 0 0 0 0 0 0 0 5 0 0 0 0 0 0 0 0 0 0 0 0 0 0 0 0 0 0 0 2 0 0 0 0 0
0 0 0 0 0 0 0 0 0 0 0 0 0 0 0 1 0 0 0 0 0 0 0 0 0 0 0 0 0 0 0 0 0 0 0 0 0 0 0 0 0 0 0 0
0 0 0 0 0 0 0 0 0 0 0 0 0 0 0 0 2 2 18 0 0 0 0 0 0 0 0 0 0 0 0 0 0 0 0 0 0 0 0 0 0 0 0 0
0 0 0 0 0 0 0 0 0 0 0 0 0 0 0 0 0 0 37 11 2 0 0 0 0 0 0 0 0 0 0 0 0 0 0 0 0 0 0 0 0 0 0 0
0 0 0 0 0 0 0 0 0 0 0 0 0 0 0 0 0 0 0 2 13 0 0 0 0 0 0 0 0 0 0 0 0 0 0 0 0 0 0 0 0 0 0 0
0 3 1 0 2 0 0 0 0 0 0 0 0 0 0 0 0 0 0 2 45 14 0 2 0 0 0 0 0 0 0 0 0 0 0 0 0 0 0 0 0 1 6 0
0 32 36 0 36 0 0 0 0 0 39 0 0 0 0 0 0 0 134 7 52 87 6 10 0 0 0 0 0 0 0 0 0 0 0 0 0 0 0 0 1 2 10 0
0 0 0 0 3 0 9 53 269 51 0 15 0 0 0 81 12 0 3 62 54 111 20 5 0 0 0 0 0 0 0 0 0 0 0 0 0 0 0 0 0 0 0 16
0 0 0 0 0 0 5 0 0 79 99 12 33 4 0 2 0 0 15 43 90 45 37 8 1 0 0 0 0 0 0 0 0 0 0 0 0 0 0 0 0 0 0 0
12 0 2 0 0 0 0 0 0 53 15 73 34 7 0 0 0 0 163 70 114 91 41 52 94 0 0 0 0 0 0 0 0 0 0 0 0 0 0 0 0 0 0 0
5 3 8 3 0 1 0 0 3 22 0 0 0 0 0 0 0 0 2 73 66 100 91 91 174 76 0 0 0 0 0 0 0 0 0 0 0 0 0 0 0 0 0 0
CIN
-0 -0 -0 -0 -0 -0 -0 -0 -0 -0 -0 -0 -0 -0 -0 -0 -0 -0 -48 -43 -55 -0 -0 -0 -0 -0 -0 -0 -371 -391 -323 -0 -254 -116 -122 -71 -90 -8 -59 -60 -56 -0 -0 -0
-0 -0 -0 -0 -0 -0 -0 -0 -0 -0 -0 -6 -0 -0 -0 -33 -6 -44 -0 -0 -0 -0 -0 -70 -694 -0 -0 -0 -0 -341 -355 -156 -123 -116 -74 -68 -56 -55 -65 -49 -43 -47 -57 -32
-0 -0 -0 -0 -0 -0 -0 -0 -0 -0 -0 -0 -0 -0 -0 -0 -14 -0 -0 -0 -0 -0 -0 -431 -630 -0 -0 -0 -0 -388 -238 -154 -53 -58 -86 -69 -0 -65 -60 -45 -47 -69 -23 -34
-0 -0 -0 -0 -0 -0 -0 -0 -0 -0 -0 -0 -0 -0 -0 -0 -0 -0 -0 -0 -0 -0 -0 -0 -611 -0 -0 -0 -0 -350 -231 -120 -50 -70 -77 -71 -18 -33 -31 -40 -44 -57 -49 -21
-0 -0 -0 -0 -0 -0 -0 -0 -0 -0 -0 -0 -0 -0 -0 -0 -0 -0 -0 -0 -0 -0 -0 -635 -657 -82 -0 -0 -22 -0 -197 -75 -63 -55 -60 -109 -58 -56 -29 -0 -0 -84 -84 -39
-0 -0 -0 -0 -0 -0 -0 -0 -0 -0 -32 -0 -0 -0 -0 -0 -0 -0 -0 -0 -0 -0 -0 -241 -584 -0 -0 -0 -0 -245 -177 -58 -35 -73 -89 -0 -71 -57 -0 -0 -0 -70 -32 -24
-0 -0 -0 -0 -0 -0 -0 -0 -0 -0 -0 -0 -0 -0 -0 -0 -0 -0 -0 -305 -0 -0 -0 -546 -550 -0 -0 -0 -0 -345 -213 -158 -124 -68 -80 -37 -6 -3 -0 -0 -0 -28 -32 -38
-0 -0 -0 -0 -0 -0 -0 -0 -0 -0 -0 -0 -0 -0 -0 -0 -0 -0 -0 -304 -153 -0 -0 -0 -0 -0 -0 -0 -36 -329 -0 -0 -0 -76 -87 -0 -7 -62 -0 -37 -42 -68 -39 -43
-0 -0 -0 -0 -0 -0 -0 -0 -0 -0 -0 -0 -0 -1 -0 -0 -0 -0 -250 -280 -0 -0 -0 -0 -0 -0 -0 -0 -0 -0 -0 -0 -0 -116 -0 -0 -57 -55 -48 -32 -33 -66 -35 -40
-0 -0 -0 -0 -0 -0 -0 -0 -6 -0 -0 -0 -0 -0 -0 -0 -0 -42 -185 -229 -137 -0 -0 -0 -0 -0 -0 -0 -0 -0 -0 -0 -0 -0 -0 -0 -37 -63 -52 -50 -51 -48 -51 -107
-0 -0 -0 -0 -0 -0 -0 -1 -0 -0 -0 -0 -0 -0 -0 -0 -0 -148 -177 -244 -193 -0 -0 -0 -0 -0 -0 -0 -0 -0 -0 -0 -0 -0 -0 -0 -0 -60 -65 -67 -68 -88 -62 -46
-0 -0 -0 -0 -0 -0 -0 -0 -0 -0 -0 -0 -0 -0 -0 -100 -117 -155 -194 -253 -339 -0 -0 -0 -0 -0 -0 -0 -0 -0 -0 -0 -0 -0 -0 -0 -0 -50 -57 -65 -95 -94 -75 -51
-0 -0 -0 -0 -0 -0 -0 -0 -0 -0 -0 -0 -0 -0 -0 -0 -100 -143 -214 -281 -0 -0 -0 -0 -0 -0 -0 -0 -0 -0 -0 -0 -0 -0 -0 -0 -0 -0 -47 -75 -0 -98 -83 -95
-0 -0 -0 -0 -0 -0 -0 -0 -0 -0 -0 -0 -36 -14 -62 -29 -29 -173 -247 -293 -0 -0 -0 -0 -0 -0 -0 -0 -0 -0 -0 -0 -0 -0 -0 -0 -0 -0 -0 -0 -77 -74 -86 -110
-0 -0 -0 -0 -0 -0 -0 -0 -0 -0 -0 -0 -0 -25 -0 -0 -0 -41 -0 -0 -0 -0 -0 -0 -0 -0 -0 -0 -0 -0 -0 -0 -0 -0 -0 -0 -0 -0 -0 -0 -12 -62 -87 -86
-0 -0 -0 -0 -0 -0 -0 -0 -0 -0 -0 -0 -0 -0 -0 -0 -0 -0 -272 -0 -0 -0 -0 -0 -0 -0 -0 -0 -0 -0 -0 -0 -0 -0 -0 -0 -0 -3 -41 -0 -0 -0 -0 -0
-0 -0 -0 -0 -0 -0 -0 -0 -0 -0 -0 -0 -0 -0 -0 -40 -0 -0 -16 -0 -0 -0 -0 -0 -0 -0 -0 -0 -0 -0 -0 -0 -0 -0 -0 -0 -0 -0 -0 -0 -0 -0 -0 -0
-0 -0 -0 -0 -0 -0 -0 -0 -0 -0 -0 -0 -0 -0 -0 -0 -30 -122 -142 -0 -0 -0 -0 -0 -0 -0 -0 -0 -0 -0 -0 -0 -0 -0 -0 -0 -0 -0 -0 -0 -0 -0 -0 -0
-0 -0 -0 -0 -0 -0 -0 -0 -0 -0 -0 -0 -0 -0 -0 -0 -0 -0 -115 -193 -108 -0 -0 -0 -0 -0 -0 -0 -0 -0 -0 -0 -0 -0 -0 -0 -0 -0 -0 -0 -0 -0 -0 -0
-0 -0 -0 -4 -0 -0 -0 -0 -0 -0 -0 -0 -0 -0 -0 -0 -0 -0 -0 -85 -256 -0 -0 -0 -0 -0 -0 -0 -0 -0 -0 -0 -0 -0 -0 -0 -0 -0 -0 -0 -0 -0 -0 -0
-0 -42 -6 -0 -7 -0 -0 -11 -0 -0 -0 -0 -0 -0 -0 -0 -0 -0 -0 -142 -252 -304 -0 -263 -0 -0 -0 -0 -0 -0 -0 -0 -0 -0 -0 -0 -0 -0 -0 -0 -0 -23 -151 -0
-12 -79 -38 -0 -22 -0 -0 -0 -0 -0 -59 -0 -0 -0 -0 -0 -0 -0 -81 -248 -271 -270 -331 -391 -0 -0 -0 -0 -0 -0 -0 -0 -0 -0 -0 -0 -0 -0 -0 -0 -29 -77 -315 -0
-0 -0 -0 -0 -19 -0 -137 -76 -81 -152 -8 -56 -0 -0 -0 -189 -155 -0 -13 -204 -241 -263 -351 -386 -0 -0 -0 -0 -0 -0 -0 -0 -0 -0 -0 -0 -0 -0 -0 -0 -52 -0 -0 -338
-0 -0 -0 -0 -0 -0 -238 -0 -0 -341 -66 -73 -70 -25 -0 -183 -0 -0 -29 -192 -218 -271 -334 -358 -69 -0 -0 -0 -0 -0 -0 -0 -0 -0 -0 -0 -0 -0 -0 -0 -0 -0 -0 -0
-0 -0 -0 -0 -0 -0 -0 -0 -102 -609 -296 -137 -70 -59 -0 -0 -0 -0 -122 -145 -164 -208 -242 -318 -325 -11 -0 -0 -0 -0 -0 -0 -0 -0 -0 -0 -0 -0 -0 -0 -0 -0 -0 -0
-11 -0 -0 -0 -0 -0 -0 -0 -176 -568 -0 -0 -0 -0 -0 -0 -0 -0 -12 -189 -225 -200 -178 -260 -291 -325 -0 -0 -0 -0 -0 -0 -0 -0 -0 -0 -0 -0 -0 -0 -0 -0 -0 -0
Wind_Speed
9 10 18 22 22 16 14 14 20 22 19 17 6 21 9 10 6 7 10 9 8 10 10 15 13 12 10 9 9 6 4 2 1 1 2 1 1 2 1 2 3 6 5 6
14 27 21 19 16 20 17 19 22 23 19 4 15 20 13 8 7 9 10 10 4 12 13 13 13 8 9 9 9 6 4 3 1 1 1 1 2 3 2 2 2 2 5 6
25 14 19 19 18 19 21 20 21 19 21 16 5 5 5 5 5 7 12 8 16 21 18 14 14 11 9 9 8 7 5 4 2 2 1 3 3 3 3 1 1 3 2 3
23 20 19 24 24 21 21 18 21 21 16 9 1 6 4 6 10 10 12 10 16 18 15 14 13 10 9 8 8 7 6 4 3 3 3 3 1 2 2 1 2 3 4 2
19 24 24 23 23 24 22 15 19 21 15 7 5 2 6 4 8 14 4 11 14 17 19 16 13 11 9 8 8 7 7 5 5 3 3 3 3 2 2 2 3 2 2 2
20 15 22 28 24 24 24 17 16 16 11 4 6 7 9 6 9 5 3 10 16 14 13 13 12 11 8 8 8 7 7 4 2 4 6 6 5 5 4 4 3 2 2 2
22 25 22 24 22 23 20 14 9 4 3 7 5 4 10 10 7 7 10 13 12 15 16 15 14 10 9 9 8 7 8 5 2 6 6 6 4 5 4 3 3 4 2 1
17 14 28 24 26 21 19 15 8 7 5 5 6 8 13 14 10 9 14 14 13 14 14 13 14 10 10 9 9 8 8 6 4 6 5 5 4 2 2 1 2 2 2 2
19 18 12 26 18 23 16 13 13 5 1 2 5 7 6 7 8 10 14 13 12 13 13 14 13 11 9 9 9 8 8 6 7 7 4 5 4 3 3 1 3 2 2 2
6 5 21 21 18 19 22 7 7 1 8 6 5 6 7 7 10 10 11 11 10 10 12 12 12 10 8 9 7 7 8 8 7 7 5 4 5 3 3 3 4 4 3 3
16 4 8 19 22 23 12 11 4 8 7 6 2 8 8 12 9 14 12 13 14 13 12 12 10 9 10 8 8 7 7 8 7 6 5 5 4 5 6 5 4 5 4 3
31 7 10 16 18 23 14 11 8 9 6 5 6 7 9 8 12 13 13 13 10 11 11 11 11 10 11 9 8 8 6 8 7 6 5 5 6 6 5 6 4 4 6 6
23 19 4 5 8 12 18 14 10 7 7 9 6 7 6 10 9 16 15 14 14 12 11 10 12 11 11 8 8 8 7 7 7 7 7 6 6 5 5 6 5 4 5 6
22 13 23 10 9 11 24 18 16 10 6 7 8 7 4 7 10 10 14 15 14 14 13 10 12 9 12 9 10 8 7 8 7 8 7 7 6 4 3 5 6 5 5 5
6 22 13 23 21 12 22 21 20 18 10 15 8 6 11 11 10 15 18 16 14 14 13 13 13 10 11 9 9 9 7 8 8 9 7 7 6 5 3 4 6 6 6 5
12 15 22 17 20 20 13 27 22 20 12 7 13 12 11 11 10 10 19 19 18 16 16 15 14 14 13 11 9 10 8 8 9 10 8 7 6 3 5 5 6 6 5 6
9 6 13 22 18 11 15 18 23 19 10 14 14 6 4 5 9 10 19 21 20 17 17 17 16 15 12 12 10 9 8 8 9 10 9 7 6 6 6 5 5 6 6 7
13 10 5 11 13 19 10 12 17 19 17 10 8 14 9 8 7 11 18 18 20 19 19 17 14 14 12 12 9 9 11 10 9 11 10 9 7 7 6 5 6 6 6 7
17 8 6 9 14 2 10 13 24 15 15 15 10 12 14 11 6 2 17 17 20 20 18 18 16 15 11 15 11 12 12 11 9 9 10 11 8 7 7 7 7 4 6 5
15 14 5 1 10 20 8 7 8 8 12 12 12 11 9 9 9 6 9 14 14 16 16 16 16 15 17 15 13 13 12 11 10 8 12 12 10 9 8 8 7 4 4 5
8 6 11 6 5 5 10 8 3 10 10 9 13 10 9 8 8 9 8 14 17 17 18 18 18 18 16 16 15 14 12 13 11 9 12 11 10 11 9 9 5 5 4 5
5 2 4 4 5 5 5 5 7 7 5 10 10 11 10 9 9 8 9 13 16 16 16 20 17 15 14 16 16 14 12 11 10 9 11 12 10 11 9 11 6 7 6 5
6 4 3 6 6 5 7 1 10 10 9 8 9 8 13 11 9 9 7 12 16 17 18 18 17 16 14 16 16 15 12 12 11 8 10 13 12 10 11 11 8 6 6 5
11 14 4 10 17 18 16 23 24 14 7 7 8 9 12 11 11 9 8 13 13 13 17 16 17 17 15 13 15 15 13 12 11 8 10 13 12 10 11 9 9 8 6 5
2 15 8 6 16 20 18 23 22 20 19 5 7 11 13 13 11 9 8 15 15 14 14 18 18 17 17 14 13 13 14 12 11 8 11 13 11 11 10 10 9 7 6 7
8 5 6 5 14 5 16 22 19 18 18 14 18 8 10 13 12 10 10 12 12 12 15 17 18 17 16 16 14 14 14 13 10 9 11 11 10 8 10 8 5 6 1 14
Wind_Direction
221 219 225 219 225 240 233 241 249 255 253 246 338 269 257 219 204 225 244 246 233 155 137 133 132 131 125 122 126 152 168 213 119 347 315 317 254 273 235 240 246 218 225 241
221 232 218 233 225 230 242 243 258 272 277 173 219 253 247 202 213 218 234 246 227 123 131 131 131 125 131 135 142 156 173 153 67 158 257 212 267 268 225 238 296 280 235 225
220 220 219 229 229 239 235 235 248 258 279 285 263 306 304 260 246 273 252 220 140 146 147 148 143 141 140 142 145 160 164 140 131 33 23 340 352 334 353 336 327 299 285 181
231 224 219 213 230 223 238 228 235 251 261 261 273 285 294 308 300 297 282 137 143 150 149 148 147 144 143 145 148 144 145 165 135 83 65 79 63 305 279 283 12 357 10 201
212 207 215 225 213 225 238 226 229 239 248 244 277 296 250 252 293 283 196 147 156 154 152 155 144 140 146 139 146 146 144 154 162 121 103 75 23 304 335 16 61 6 344 334
223 222 209 225 234 218 230 236 239 239 236 236 217 181 264 233 234 187 138 125 147 137 135 130 139 138 138 137 139 142 151 178 150 125 78 75 45 29 39 22 25 1 351 310
217 224 223 225 223 228 218 218 237 299 243 211 216 286 252 260 231 171 139 126 135 136 139 140 144 142 135 145 150 154 153 165 168 111 90 104 82 66 61 6 360 9 356 80
212 217 213 211 221 220 222 198 195 209 183 246 242 239 258 227 213 129 139 139 130 133 142 143 142 141 145 150 155 166 160 160 143 116 113 126 98 148 115 355 357 30 39 118
193 228 197 219 217 211 232 205 190 169 276 204 229 230 340 118 129 119 130 126 135 140 143 144 145 143 148 149 167 164 157 160 139 128 129 144 145 153 151 125 22 54 74 62
261 191 229 208 215 237 209 184 149 64 196 250 294 296 227 155 175 124 126 136 134 137 139 144 144 144 152 153 164 147 144 150 156 154 156 149 174 153 108 83 72 65 84 59
232 217 242 211 206 213 222 209 142 133 148 169 233 273 231 168 149 142 143 148 147 150 144 146 144 145 149 148 148 144 144 139 138 121 132 111 101 98 90 85 76 69 80 86
210 201 234 230 212 207 213 178 154 174 220 200 179 261 149 136 143 140 145 147 139 142 142 147 142 141 147 152 152 154 158 145 152 148 127 117 102 95 96 92 93 67 63 64
197 226 297 242 276 208 200 182 176 134 132 204 176 249 224 150 128 142 143 146 150 148 146 148 145 148 156 154 156 164 164 162 158 132 130 110 108 100 121 109 123 104 81 80
192 192 212 219 203 192 193 179 188 153 167 181 216 223 165 142 139 144 152 154 157 156 156 154 152 153 159 159 160 167 178 162 150 136 130 121 129 140 148 128 138 123 112 105
290 201 191 224 247 255 192 183 184 200 177 190 193 181 169 172 179 160 160 155 153 156 155 158 159 160 158 163 159 166 172 154 142 136 134 138 148 178 149 121 129 124 126 114
321 221 199 222 224 239 251 185 191 203 185 178 181 233 179 199 180 145 160 160 166 166 164 163 162 162 160 167 163 164 163 154 135 138 144 141 148 141 125 123 111 127 115 88
283 331 183 214 221 236 234 211 199 201 194 181 203 182 226 169 188 163 165 166 169 170 167 165 164 167 163 165 159 162 153 145 132 142 149 146 162 139 129 126 109 106 120 100
258 312 280 197 196 228 239 212 191 201 198 208 170 183 201 210 213 170 165 161 172 172 168 166 163 163 160 160 153 148 146 146 142 149 154 154 157 147 145 128 112 99 112 118
217 233 279 181 192 117 255 181 194 195 208 194 183 190 196 207 160 184 163 167 170 172 170 168 161 158 152 160 155 145 151 149 152 151 158 162 155 156 152 139 137 120 116 117
200 207 219 356 166 211 190 234 168 150 195 186 171 188 170 167 197 227 181 164 162 161 159 157 159 158 154 161 151 149 156 157 164 164 165 166 155 160 154 150 148 141 132 135
193 213 201 228 143 254 182 235 154 189 227 193 177 176 172 169 175 208 176 167 162 161 155 152 155 161 163 159 152 160 157 170 172 167 160 165 153 160 154 150 143 143 154 137
312 289 194 156 111 211 185 296 226 210 200 168 164 167 165 161 171 186 159 164 154 154 146 155 155 159 162 160 159 162 164 170 168 166 155 162 156 164 153 151 150 152 155 168
31 352 235 9 200 272 104 190 274 187 169 156 159 169 159 157 172 169 146 163 156 155 155 158 156 156 163 166 166 165 175 162 170 167 154 158 160 150 152 155 156 154 161 166
348 7 5 348 13 341 358 11 355 339 140 153 153 165 158 160 161 165 158 157 155 149 152 157 151 161 167 170 170 170 164 163 167 168 155 156 157 148 157 162 166 168 170 173
29 304 341 281 357 347 8 347 336 340 357 29 165 171 173 158 168 158 156 150 152 151 150 157 160 165 171 166 167 164 169 166 168 156 157 161 161 157 160 167 172 172 189 175
172 276 8 313 339 333 314 328 333 349 12 2 10 337 163 161 164 161 161 161 155 147 153 158 164 164 169 171 168 170 175 172 164 158 160 166 162 160 166 161 156 41 185 191